This is the latest recevied weather packets stored in our database for station/object NE8U. If no packets are shown the sender has not sent any weather packets the latest 10 day(s).
| Time | Temp. | Humidity | Pressure | Rain* | Wind** | Luminosity | Snow |
|---|---|---|---|---|---|---|---|
| 1777831104 | 27.22° C | 31% | 1015.2 hPa | 0 mm | - | 291 W/m² | - |
| 1777830803 | 27.22° C | 31% | 1015 hPa | 0 mm | - | 290 W/m² | - |
| 1777830498 | 27.22° C | 31% | 1015.1 hPa | 0 mm | - | 273 W/m² | - |
| 1777830196 | 27.78° C | 31% | 1015.4 hPa | 0 mm | - | 294 W/m² | - |
| 1777829891 | 27.22° C | 31% | 1015.5 hPa | 0 mm | - | 324 W/m² | - |
| 1777829588 | 27.22° C | 31% | 1015.4 hPa | 0 mm | - | 320 W/m² | - |
| 1777829285 | 27.22° C | 31% | 1015.4 hPa | 0 mm | - | 331 W/m² | - |
| 1777828982 | 27.78° C | 31% | 1015.5 hPa | 0 mm | - | 317 W/m² | - |
| 1777828678 | 27.78° C | 31% | 1015.5 hPa | 0 mm | - | 348 W/m² | - |
| 1777828375 | 27.22° C | 32% | 1015.7 hPa | 0 mm | - | 303 W/m² | - |
| 1777828072 | 27.78° C | 31% | 1015.5 hPa | 0 mm | - | 350 W/m² | - |
| 1777827769 | 27.78° C | 31% | 1015.7 hPa | 0 mm | - | 516 W/m² | - |
| 1777827466 | 27.78° C | 32% | 1015.7 hPa | 0 mm | - | 337 W/m² | - |
| 1777827164 | 26.67° C | 32% | 1015.5 hPa | 0 mm | - | 327 W/m² | - |
| 1777826859 | 26.67° C | 32% | 1015.5 hPa | 0 mm | - | 373 W/m² | - |
| 1777826557 | 26.67° C | 32% | 1015.5 hPa | 0 mm | - | 357 W/m² | - |
| 1777826253 | 26.67° C | 32% | 1015.5 hPa | 0 mm | - | 314 W/m² | - |
| 1777825951 | 26.67° C | 32% | 1015.9 hPa | 0 mm | - | 311 W/m² | - |
| 1777825647 | 26.67° C | 32% | 1015.7 hPa | 0 mm | - | 285 W/m² | - |
| 1777825346 | 26.67° C | 33% | 1015.4 hPa | 0 mm | - | 280 W/m² | - |
| 1777825042 | 26.67° C | 33% | 1015.7 hPa | 0 mm | - | 281 W/m² | - |
| 1777824738 | 26.67° C | 33% | 1015.6 hPa | 0 mm | - | 326 W/m² | - |
| 1777824435 | 26.67° C | 33% | 1015.6 hPa | 0 mm | - | 402 W/m² | - |
| 1777824131 | 26.67° C | 33% | 1015.4 hPa | 0 mm | - | 363 W/m² | - |
| 1777823827 | 26.11° C | 33% | 1015.7 hPa | 0 mm | - | 350 W/m² | - |
* Rain latest hour (hover to see other rain measurements)
** Current wind speed in m/s (hover to see current wind gust speed)